EZY46QG EGCC-EHAM

Flight info

Callsign EZY46QG
Flight time 0h 51m
Altitude 31000
Route SONEX L975 DESIG L603 LAMSO
Aircraft A320/M-SDE3FGHIRWY/LB1

Departure

Time 2026-05-04 19:55
Airport Manchester Airport (EGCC)

Arrival

Time 2026-05-04 20:47
Airport Amsterdam Airport Schiphol (EHAM)
Time Latitude Longitude Altitude Speed Heading
2026-05-04 19:32 53.36550 -2.28560 255 ft 0 kts 45°
2026-05-04 19:32 53.36548 -2.28563 255 ft 0 kts 45°
2026-05-04 19:41 53.36534 -2.28584 255 ft 4 kts 23°
2026-05-04 19:41 53.36508 -2.28593 255 ft 4 kts
2026-05-04 19:41 53.36494 -2.28603 255 ft 4 kts 100°
2026-05-04 19:42 53.36503 -2.28628 255 ft 4 kts 135°
2026-05-04 19:42 53.36511 -2.28642 255 ft 0 kts 135°
2026-05-04 19:44 53.36511 -2.28641 255 ft 1 kts 135°
2026-05-04 19:44 53.36483 -2.28595 255 ft 12 kts 135°
2026-05-04 19:44 53.36426 -2.28497 255 ft 11 kts 126°
2026-05-04 19:45 53.36396 -2.28387 255 ft 10 kts 112°
2026-05-04 19:45 53.36356 -2.28305 255 ft 8 kts 136°
2026-05-04 19:45 53.36318 -2.28240 255 ft 7 kts 135°
2026-05-04 19:45 53.36285 -2.28185 255 ft 6 kts 135°
2026-05-04 19:46 53.36256 -2.28137 255 ft 6 kts 134°
2026-05-04 19:46 53.36204 -2.28047 255 ft 14 kts 135°
2026-05-04 19:46 53.36135 -2.27945 255 ft 13 kts 141°
2026-05-04 19:46 53.36071 -2.27859 255 ft 11 kts 141°
2026-05-04 19:47 53.36007 -2.27779 255 ft 14 kts 143°
2026-05-04 19:47 53.35922 -2.27727 255 ft 13 kts 179°
2026-05-04 19:47 53.35838 -2.27732 253 ft 13 kts 184°
2026-05-04 19:47 53.35762 -2.27662 250 ft 13 kts 155°
2026-05-04 19:48 53.35673 -2.27593 246 ft 15 kts 143°
2026-05-04 19:48 53.35619 -2.27469 245 ft 13 kts 79°
2026-05-04 19:48 53.35658 -2.27376 251 ft 5 kts 51°
2026-05-04 19:48 53.35672 -2.27346 254 ft 5 kts 50°
2026-05-04 19:49 53.35721 -2.27246 255 ft 14 kts 51°
2026-05-04 19:49 53.35777 -2.27130 255 ft 12 kts 51°
2026-05-04 19:49 53.35820 -2.27026 255 ft 11 kts 59°
2026-05-04 19:49 53.35872 -2.26898 256 ft 16 kts 52°
2026-05-04 19:50 53.35946 -2.26723 256 ft 20 kts 52°
2026-05-04 19:50 53.36035 -2.26540 256 ft 21 kts 51°
2026-05-04 19:50 53.36130 -2.26342 255 ft 22 kts 51°
2026-05-04 19:50 53.36214 -2.26210 255 ft 7 kts 49°
2026-05-04 19:51 53.36232 -2.26175 255 ft 2 kts 49°
2026-05-04 19:51 53.36251 -2.26136 255 ft 10 kts 51°
2026-05-04 19:51 53.36270 -2.26046 255 ft 6 kts 92°
2026-05-04 19:51 53.36270 -2.26037 255 ft 0 kts 95°
2026-05-04 19:52 53.36268 -2.25999 255 ft 8 kts 90°
2026-05-04 19:52 53.36284 -2.25923 255 ft 6 kts 68°
2026-05-04 19:53 53.36290 -2.25856 256 ft 9 kts 90°
2026-05-04 19:53 53.36272 -2.25790 259 ft 3 kts 129°
2026-05-04 19:53 53.36231 -2.25752 261 ft 13 kts 180°
2026-05-04 19:53 53.36195 -2.25799 259 ft 0 kts 230°
2026-05-04 19:54 53.36185 -2.25819 259 ft 11 kts 230°
2026-05-04 19:54 53.35979 -2.26246 262 ft 83 kts 231°
2026-05-04 19:55 53.35483 -2.27271 249 ft 142 kts 231°
2026-05-04 19:55 53.34801 -2.28697 595 ft 161 kts 234°
2026-05-04 19:55 53.34095 -2.30160 1322 ft 162 kts 234°
2026-05-04 19:55 53.33360 -2.31708 1753 ft 180 kts 235°
2026-05-04 19:56 53.32551 -2.33470 2067 ft 201 kts 240°
2026-05-04 19:56 53.32110 -2.35783 2357 ft 221 kts 271°
2026-05-04 19:56 53.32475 -2.38365 2753 ft 242 kts 301°
2026-05-04 19:56 53.33711 -2.40314 3483 ft 252 kts 333°
2026-05-04 19:57 53.35383 -2.41310 4394 ft 257 kts 341°
2026-05-04 19:57 53.37104 -2.42228 5301 ft 261 kts 341°
2026-05-04 19:57 53.38825 -2.43136 6197 ft 264 kts 341°
2026-05-04 19:57 53.40609 -2.44078 7083 ft 267 kts 341°
2026-05-04 19:58 53.41789 -2.44708 7622 ft 270 kts 340°
2026-05-04 19:58 53.44250 -2.45578 8663 ft 279 kts
2026-05-04 19:58 53.45533 -2.45224 9202 ft 285 kts 17°
2026-05-04 19:58 53.47270 -2.43564 10004 ft 294 kts 41°
2026-05-04 19:59 53.48452 -2.40746 10720 ft 301 kts 68°
2026-05-04 19:59 53.48804 -2.37273 11453 ft 306 kts 94°
2026-05-04 19:59 53.48477 -2.33726 12192 ft 310 kts 97°
2026-05-04 19:59 53.48503 -2.30094 12821 ft 319 kts 79°
2026-05-04 20:00 53.49086 -2.26362 13000 ft 342 kts 74°
2026-05-04 20:00 53.49711 -2.22426 13442 ft 354 kts 77°
2026-05-04 20:00 53.50250 -2.16919 14309 ft 359 kts 83°
2026-05-04 20:00 53.50445 -2.14148 14724 ft 362 kts 84°
2026-05-04 20:01 53.50735 -2.09922 15346 ft 365 kts 83°
2026-05-04 20:01 53.51065 -2.05656 16010 ft 368 kts 82°
2026-05-04 20:01 53.51444 -2.01395 16652 ft 371 kts 81°
2026-05-04 20:01 53.51869 -1.97093 17282 ft 375 kts 81°
2026-05-04 20:02 53.52277 -1.92753 17904 ft 378 kts 85°
2026-05-04 20:02 53.52296 -1.88292 18491 ft 380 kts 96°
2026-05-04 20:02 53.51826 -1.84007 19011 ft 382 kts 107°
2026-05-04 20:02 53.51072 -1.79727 19582 ft 383 kts 107°
2026-05-04 20:03 53.50304 -1.75423 20139 ft 385 kts 107°
2026-05-04 20:03 53.49534 -1.71097 20671 ft 388 kts 107°
2026-05-04 20:03 53.48759 -1.66744 21222 ft 390 kts 107°
2026-05-04 20:03 53.47984 -1.62376 21762 ft 391 kts 107°
2026-05-04 20:04 53.47210 -1.57991 22300 ft 393 kts 107°
2026-05-04 20:04 53.46428 -1.53580 22836 ft 395 kts 107°
2026-05-04 20:04 53.45636 -1.49147 23305 ft 398 kts 107°
2026-05-04 20:04 53.44834 -1.44690 23765 ft 400 kts 107°
2026-05-04 20:05 53.44025 -1.40208 24199 ft 402 kts 107°
2026-05-04 20:05 53.43210 -1.35714 24611 ft 403 kts 107°
2026-05-04 20:05 53.42390 -1.31203 25016 ft 405 kts 107°
2026-05-04 20:05 53.41567 -1.26672 25421 ft 407 kts 107°
2026-05-04 20:06 53.40742 -1.22125 25823 ft 408 kts 106°
2026-05-04 20:06 53.39923 -1.17620 26222 ft 410 kts 106°
2026-05-04 20:06 53.39086 -1.13038 26613 ft 412 kts 106°
2026-05-04 20:06 53.38243 -1.08449 26999 ft 413 kts 106°
2026-05-04 20:07 53.37397 -1.03835 27381 ft 415 kts 106°
2026-05-04 20:07 53.36550 -0.99210 27759 ft 417 kts 106°
2026-05-04 20:07 53.35694 -0.94550 28116 ft 419 kts 106°
2026-05-04 20:07 53.34832 -0.89872 28487 ft 421 kts 106°
2026-05-04 20:08 53.33965 -0.85188 28856 ft 423 kts 106°
2026-05-04 20:08 53.33089 -0.80486 29226 ft 424 kts 106°
2026-05-04 20:08 53.32207 -0.75772 29579 ft 426 kts 106°
2026-05-04 20:08 53.31319 -0.71022 29927 ft 427 kts 106°
2026-05-04 20:09 53.30431 -0.66263 30239 ft 429 kts 106°
2026-05-04 20:09 53.29539 -0.61499 30502 ft 431 kts 106°
2026-05-04 20:09 53.28639 -0.56700 30755 ft 433 kts 106°
2026-05-04 20:09 53.27735 -0.51897 30979 ft 434 kts 106°
2026-05-04 20:10 53.26830 -0.47105 31045 ft 427 kts 106°
2026-05-04 20:10 53.25950 -0.42470 31054 ft 413 kts 106°
2026-05-04 20:10 53.25084 -0.37932 31076 ft 408 kts 107°
2026-05-04 20:11 53.23355 -0.28888 31058 ft 409 kts 107°
2026-05-04 20:11 53.21637 -0.19901 31059 ft 410 kts 107°
2026-05-04 20:12 53.19901 -0.10859 31057 ft 409 kts 107°
2026-05-04 20:12 53.18147 -0.01827 31060 ft 409 kts 107°
2026-05-04 20:13 53.16390 0.07218 31045 ft 410 kts 108°
2026-05-04 20:13 53.14622 0.16279 31038 ft 412 kts 108°
2026-05-04 20:14 53.12841 0.25356 31038 ft 412 kts 108°
2026-05-04 20:14 53.11067 0.34377 31040 ft 413 kts 108°
2026-05-04 20:15 53.09267 0.43469 31046 ft 413 kts 108°
2026-05-04 20:15 53.07459 0.52554 31044 ft 414 kts 109°
2026-05-04 20:16 53.05635 0.61668 31038 ft 416 kts 109°
2026-05-04 20:16 53.03798 0.70798 31037 ft 417 kts 109°
2026-05-04 20:17 53.01955 0.79957 31040 ft 418 kts 109°
2026-05-04 20:17 53.00095 0.89109 31037 ft 419 kts 110°
2026-05-04 20:18 52.98241 0.98226 31042 ft 420 kts 109°
2026-05-04 20:18 52.96990 1.07716 31039 ft 422 kts 102°
2026-05-04 20:19 52.95890 1.17299 31039 ft 424 kts 103°
2026-05-04 20:19 52.94770 1.26914 31039 ft 425 kts 103°
2026-05-04 20:20 52.93640 1.36551 31042 ft 425 kts 103°
2026-05-04 20:20 52.92512 1.46165 31045 ft 425 kts 103°
2026-05-04 20:21 52.91365 1.55807 31041 ft 426 kts 103°
2026-05-04 20:21 52.89632 1.70201 31043 ft 427 kts 103°
2026-05-04 20:22 52.88462 1.79846 31042 ft 427 kts 103°
2026-05-04 20:22 52.87292 1.89499 31043 ft 428 kts 103°
2026-05-04 20:23 52.86114 1.99147 31046 ft 428 kts 103°
2026-05-04 20:23 52.84925 2.08794 31048 ft 428 kts 104°
2026-05-04 20:24 52.83723 2.18404 30823 ft 422 kts 104°
2026-05-04 20:24 52.83133 2.23115 30568 ft 415 kts 104°
2026-05-04 20:24 52.82548 2.27765 30305 ft 410 kts 104°
2026-05-04 20:25 52.81969 2.32366 29807 ft 407 kts 105°
2026-05-04 20:25 52.81392 2.36926 29335 ft 403 kts 105°
2026-05-04 20:25 52.80819 2.41431 28883 ft 398 kts 105°
2026-05-04 20:25 52.80256 2.45826 28465 ft 393 kts 105°
2026-05-04 20:26 52.79695 2.50226 28043 ft 389 kts 105°
2026-05-04 20:26 52.79140 2.54576 27628 ft 385 kts 105°
2026-05-04 20:26 52.78590 2.58880 27220 ft 381 kts 105°
2026-05-04 20:26 52.78043 2.63145 26806 ft 378 kts 105°
2026-05-04 20:27 52.77498 2.67369 26396 ft 375 kts 105°
2026-05-04 20:27 52.76952 2.71557 25988 ft 372 kts 105°
2026-05-04 20:27 52.76406 2.75714 25575 ft 370 kts 105°
2026-05-04 20:27 52.75861 2.79854 25164 ft 368 kts 104°
2026-05-04 20:28 52.75320 2.83978 24724 ft 367 kts 104°
2026-05-04 20:28 52.74780 2.88088 24286 ft 366 kts 104°
2026-05-04 20:28 52.74239 2.92197 23849 ft 366 kts 104°
2026-05-04 20:28 52.73695 2.96301 23368 ft 365 kts 106°
2026-05-04 20:29 52.72898 3.00244 22916 ft 361 kts 116°
2026-05-04 20:29 52.71710 3.03934 22403 ft 367 kts 123°
2026-05-04 20:29 52.70420 3.07563 21921 ft 367 kts 123°
2026-05-04 20:29 52.69135 3.11185 21408 ft 366 kts 122°
2026-05-04 20:30 52.67853 3.14809 20932 ft 366 kts 122°
2026-05-04 20:30 52.66574 3.18429 20444 ft 366 kts 122°
2026-05-04 20:30 52.65311 3.21998 19948 ft 366 kts 122°
2026-05-04 20:30 52.64029 3.25617 19458 ft 366 kts 122°
2026-05-04 20:31 52.62745 3.29239 18959 ft 366 kts 122°
2026-05-04 20:31 52.61457 3.32855 18473 ft 366 kts 122°
2026-05-04 20:31 52.60164 3.36470 17929 ft 367 kts 122°
2026-05-04 20:31 52.58875 3.40066 17527 ft 363 kts 122°
2026-05-04 20:32 52.57594 3.43645 17012 ft 362 kts 122°
2026-05-04 20:32 52.56323 3.47197 16590 ft 360 kts 122°
2026-05-04 20:32 52.55057 3.50727 16089 ft 359 kts 122°
2026-05-04 20:32 52.53790 3.54242 15634 ft 358 kts 121°
2026-05-04 20:33 52.52532 3.57733 15294 ft 353 kts 121°
2026-05-04 20:33 52.51282 3.61199 14864 ft 351 kts 122°
2026-05-04 20:33 52.50037 3.64645 14280 ft 351 kts 121°
2026-05-04 20:33 52.48749 3.68023 13756 ft 347 kts 128°
2026-05-04 20:34 52.47217 3.71038 13280 ft 340 kts 132°
2026-05-04 20:34 52.45666 3.73914 12824 ft 334 kts 132°
2026-05-04 20:34 52.44147 3.76696 12388 ft 328 kts 133°
2026-05-04 20:34 52.42639 3.79466 11956 ft 323 kts 132°
2026-05-04 20:35 52.41155 3.82191 11507 ft 318 kts 133°
2026-05-04 20:35 52.39695 3.84890 11042 ft 315 kts 133°
2026-05-04 20:35 52.38251 3.87568 10574 ft 312 kts 133°
2026-05-04 20:35 52.36826 3.90222 10115 ft 309 kts 132°
2026-05-04 20:36 52.35413 3.92851 9639 ft 306 kts 132°
2026-05-04 20:36 52.34019 3.95452 9135 ft 302 kts 132°
2026-05-04 20:36 52.32632 3.98007 8634 ft 299 kts 132°
2026-05-04 20:36 52.31252 4.00525 8145 ft 295 kts 132°
2026-05-04 20:37 52.29890 4.03017 7660 ft 292 kts 132°
2026-05-04 20:37 52.28549 4.05458 7303 ft 285 kts 133°
2026-05-04 20:37 52.27247 4.07830 7006 ft 276 kts 133°
2026-05-04 20:37 52.25988 4.10128 6715 ft 267 kts 132°
2026-05-04 20:38 52.24765 4.12348 6423 ft 259 kts 132°
2026-05-04 20:38 52.23569 4.14507 6114 ft 255 kts 133°
2026-05-04 20:38 52.22381 4.16646 5788 ft 254 kts 132°
2026-05-04 20:38 52.21194 4.18770 5491 ft 252 kts 133°
2026-05-04 20:39 52.20008 4.20869 5184 ft 251 kts 132°
2026-05-04 20:39 52.18834 4.22937 4949 ft 245 kts 128°
2026-05-04 20:39 52.17896 4.25152 4748 ft 236 kts 114°
2026-05-04 20:39 52.17501 4.27668 4592 ft 225 kts 89°
2026-05-04 20:40 52.17718 4.30133 4433 ft 217 kts 76°
2026-05-04 20:40 52.18042 4.32498 4278 ft 211 kts 76°
2026-05-04 20:40 52.18357 4.34796 4118 ft 205 kts 76°
2026-05-04 20:40 52.18661 4.37024 4015 ft 198 kts 76°
2026-05-04 20:41 52.18953 4.39175 3908 ft 192 kts 75°
2026-05-04 20:41 52.19238 4.41268 3843 ft 188 kts 76°
2026-05-04 20:41 52.19519 4.43327 3742 ft 187 kts 76°
2026-05-04 20:41 52.19802 4.45418 3617 ft 186 kts 75°
2026-05-04 20:42 52.20075 4.47443 3498 ft 179 kts 76°
2026-05-04 20:42 52.20339 4.49375 3338 ft 172 kts 76°
2026-05-04 20:42 52.20599 4.51272 3109 ft 170 kts 76°
2026-05-04 20:42 52.20987 4.53035 2928 ft 165 kts 59°
2026-05-04 20:43 52.21563 4.54635 2717 ft 163 kts 57°
2026-05-04 20:43 52.22151 4.56192 2525 ft 159 kts 57°
2026-05-04 20:43 52.22736 4.57717 2312 ft 158 kts 56°
2026-05-04 20:43 52.23312 4.59211 2090 ft 155 kts 56°
2026-05-04 20:44 52.23877 4.60674 1880 ft 151 kts 56°
2026-05-04 20:44 52.24437 4.62124 1673 ft 150 kts 55°
2026-05-04 20:44 52.24993 4.63562 1463 ft 150 kts 56°
2026-05-04 20:44 52.25542 4.64985 1256 ft 143 kts 56°
2026-05-04 20:45 52.26050 4.66302 1067 ft 134 kts 54°
2026-05-04 20:45 52.26534 4.67557 891 ft 131 kts 56°
2026-05-04 20:45 52.27015 4.68802 730 ft 130 kts 54°
2026-05-04 20:45 52.27502 4.70061 546 ft 132 kts 54°
2026-05-04 20:46 52.27982 4.71326 374 ft 131 kts 55°
2026-05-04 20:46 52.28468 4.72569 199 ft 128 kts 54°
2026-05-04 20:46 52.28941 4.73805 34 ft 129 kts 56°
2026-05-04 20:46 52.29387 4.74966 -2 ft 102 kts 58°
2026-05-04 20:47 52.29662 4.75678 -2 ft 55 kts 58°
2026-05-04 20:47 52.29844 4.76145 -4 ft 44 kts 58°
2026-05-04 20:47 52.30002 4.76500 -2 ft 33 kts 40°
2026-05-04 20:47 52.30188 4.76679 -1 ft 29 kts 27°
2026-05-04 20:48 52.30284 4.76768 -1 ft 21 kts 41°
2026-05-04 20:48 52.30367 4.76964 -1 ft 20 kts 58°
2026-05-04 20:48 52.30420 4.77096 -1 ft 9 kts 56°
2026-05-04 20:48 52.30458 4.77200 -1 ft 13 kts 60°
2026-05-04 20:49 52.30552 4.77435 -1 ft 22 kts 57°
2026-05-04 20:49 52.30589 4.77527 -1 ft 8 kts 56°
2026-05-04 20:49 52.30632 4.77584 -1 ft 9 kts 20°
2026-05-04 20:49 52.30729 4.77595 -1 ft 19 kts
2026-05-04 20:50 52.30870 4.77606 -1 ft 21 kts
2026-05-04 20:50 52.31012 4.77622 -1 ft 20 kts
2026-05-04 20:50 52.31152 4.77634 -1 ft 20 kts
2026-05-04 20:50 52.31289 4.77646 -1 ft 20 kts
2026-05-04 20:51 52.31426 4.77648 -1 ft 20 kts 346°
2026-05-04 20:51 52.31536 4.77518 -1 ft 20 kts 310°
2026-05-04 20:51 52.31576 4.77305 -1 ft 20 kts 268°
2026-05-04 20:51 52.31568 4.77084 -1 ft 19 kts 267°
2026-05-04 20:52 52.31561 4.76871 -1 ft 18 kts 266°
2026-05-04 20:52 52.31554 4.76672 -1 ft 17 kts 266°
2026-05-04 20:52 52.31548 4.76488 -1 ft 15 kts 266°
2026-05-04 20:52 52.31542 4.76319 -1 ft 15 kts 267°
2026-05-04 20:53 52.31536 4.76135 -1 ft 18 kts 267°
2026-05-04 20:53 52.31528 4.75926 -1 ft 19 kts 267°
2026-05-04 20:53 52.31520 4.75695 -1 ft 20 kts 266°
2026-05-04 20:53 52.31513 4.75507 -1 ft 11 kts 262°
2026-05-04 20:54 52.31452 4.75469 -1 ft 11 kts 177°
2026-05-04 20:54 52.31351 4.75477 -1 ft 18 kts 177°
2026-05-04 20:54 52.31231 4.75488 -1 ft 17 kts 177°
2026-05-04 20:54 52.31125 4.75495 -1 ft 8 kts 188°
2026-05-04 20:55 52.31084 4.75481 -1 ft 5 kts 166°
2026-05-04 20:55 52.31056 4.75507 -1 ft 2 kts 149°
2026-05-04 20:55 52.31051 4.75512 -1 ft 0 kts 148°
2026-05-04 20:55 52.31051 4.75513 -1 ft 0 kts 148°